Terminal Aerodrome Forecast
Issued by NWS

Home | Current Version | Previous Version | Text Only | Print | Product List | Glossary On
Versions: 1 2 3 4 5 6 7 8 9 10 11 12 13 14 15 16 17 18 19 20 21 22 23 24 25 26
867
FTUS46 KOTX 080528
TAFCOE
TAF
KCOE 080528Z 0806/0906 05005KT P6SM BKN080
     FM081500 06006KT 5SM BR SCT003
     FM081900 05006KT P6SM FEW050
     FM090400 02007KT P6SM FEW007
      AMD LTD TO CLD AND VIS=

USA.gov is the U.S. government's official web portal to all federal, state and local government web resources and services.